GFSCGP_prec_cloud_060.txt.gz
Cloud_Cover
0 0 0 0 0 0 0 0 0 0 0 0 0 0 2 39 100 100 100 97 54 100 28 100 100 52 0 1 22 100 54 4 5 9 36 100 100 100 100 100 100 100 97 100
0 0 0 0 1 0 0 0 0 0 0 0 0 0 0 0 0 12 92 95 59 100 100 52 5 8 100 68 63 49 20 15 5 19 100 100 100 54 71 100 100 100 100 78
2 1 1 0 3 0 0 4 0 0 0 4 0 0 0 0 0 0 2 16 77 40 46 90 100 100 43 71 100 100 100 94 89 100 100 100 90 100 100 100 100 98 16 2
4 50 32 81 9 33 5 67 20 6 47 3 0 0 0 0 0 0 0 0 0 28 100 95 77 100 100 100 100 100 100 100 100 100 100 100 100 100 100 100 99 5 5 5
4 44 42 9 97 94 99 82 100 100 100 57 3 13 0 0 0 0 0 0 5 0 36 6 88 100 7 54 63 100 100 100 100 100 100 100 100 100 99 71 12 14 5 20
52 59 58 50 44 15 100 72 5 11 26 54 0 70 0 0 0 0 0 0 12 29 24 34 6 12 100 100 53 100 100 100 100 100 100 100 77 24 46 5 12 60 1 100
0 62 97 83 100 92 100 8 46 98 100 24 0 88 0 0 0 0 86 77 28 4 0 0 9 0 0 0 44 73 100 100 100 100 100 66 5 75 60 18 36 28 1 100
85 6 43 16 25 10 26 87 45 72 67 99 99 100 1 0 0 82 52 100 96 91 23 4 5 2 4 0 0 4 5 3 100 64 6 5 5 81 12 5 8 5 5 68
96 81 21 46 100 76 54 27 50 65 90 98 58 100 4 34 6 100 88 100 100 12 98 0 0 0 20 4 8 5 4 2 1 0 0 4 5 3 3 5 4 27 32 1
58 58 49 25 83 52 95 11 30 100 56 100 72 84 8 6 63 100 99 100 100 8 0 0 0 1 2 81 69 0 0 0 0 0 0 5 5 5 61 14 100 96 71 0
100 24 39 14 50 96 99 66 74 100 68 96 98 68 99 100 76 100 100 100 67 1 0 0 0 0 1 0 18 2 0 0 0 4 74 19 7 51 71 100 83 4 0 0
29 6 77 90 28 3 86 99 100 100 100 100 20 100 100 97 20 8 100 100 68 5 0 1 5 0 0 0 0 54 4 5 27 98 25 25 19 78 98 98 0 0 0 0
37 28 45 7 80 100 100 100 87 86 79 100 58 100 100 100 100 100 100 69 76 0 0 0 4 0 4 0 0 77 96 100 100 90 100 86 62 100 90 3 0 0 0 0
97 88 99 100 80 95 100 100 34 100 31 100 78 100 100 100 100 100 100 100 87 5 0 0 0 0 53 39 7 11 100 100 100 100 100 100 100 100 62 0 0 0 0 0
98 100 100 100 99 81 100 100 88 26 96 100 100 100 100 100 100 100 100 100 70 45 2 0 0 0 96 71 87 95 100 100 100 100 100 100 100 100 2 0 0 0 0 0
100 100 100 100 100 100 90 96 95 26 98 100 100 100 100 100 100 100 100 100 100 5 4 0 0 0 100 100 80 2 100 64 100 100 100 100 99 2 0 0 2 0 0 4
100 100 100 100 100 100 95 100 76 100 98 100 100 100 100 100 100 100 79 93 100 5 11 0 0 58 28 100 70 97 100 100 77 100 95 2 0 15 0 37 7 84 0 100
100 100 100 100 100 100 100 100 100 89 100 83 95 100 100 100 100 100 28 98 89 71 77 0 48 100 47 100 96 100 100 100 60 55 0 0 59 13 1 31 97 81 0 42
100 100 100 100 100 100 100 100 100 62 59 100 100 100 100 100 100 100 10 5 55 100 90 0 96 100 94 61 99 100 100 100 33 0 0 0 46 0 0 38 42 1 1 2
100 100 100 100 100 100 100 100 100 100 15 30 100 100 100 100 100 71 0 2 0 5 2 5 97 100 72 86 100 100 100 0 38 9 11 9 100 1 14 82 34 0 4 1
100 100 100 100 100 100 100 100 100 100 100 15 22 33 84 81 14 1 1 5 0 24 81 1 4 96 99 100 100 100 98 1 44 12 34 96 95 100 98 81 0 1 3 0
100 100 100 100 100 100 100 100 100 100 100 100 28 15 96 100 11 4 11 6 4 27 2 0 36 92 100 100 100 100 99 12 91 25 90 3 6 100 3 49 0 3 0 0
100 100 100 100 100 100 100 100 100 100 100 100 93 100 100 100 12 22 1 5 45 2 0 0 83 100 100 100 100 100 96 10 100 93 1 0 0 42 45 0 0 0 3 10
100 100 100 100 100 100 100 100 100 100 100 100 100 100 100 100 87 19 31 59 13 0 4 0 98 19 94 100 100 100 59 62 85 37 0 0 0 79 69 0 3 93 19 54
99 100 100 100 100 100 100 100 100 100 100 100 100 100 100 100 100 53 25 5 4 0 1 86 100 7 86 100 100 100 21 72 100 0 0 0 0 100 4 36 14 12 42 73
100 100 100 100 100 100 100 100 100 100 100 100 100 97 100 100 100 99 5 16 3 0 96 100 64 21 100 99 100 100 12 98 70 0 0 0 12 27 8 0 5 100 86 100

GFSCGP_prec_cloud_063.txt.gz
Cloud_Cover
0 0 0 0 0 0 0 0 0 0 3 100 100 100 100 100 100 100 100 100 54 100 100 100 75 6 5 4 12 68 100 100 87 99 100 85 100 5 24 99 99 100 100 46
0 0 0 0 0 0 0 0 0 0 0 0 1 7 18 6 34 100 100 100 100 100 100 100 100 43 5 85 30 66 100 100 93 85 99 35 37 61 100 100 83 61 84 99
0 0 0 0 0 0 0 0 0 0 0 0 0 0 0 0 0 0 59 100 100 100 100 100 100 100 88 57 29 100 100 100 100 22 20 5 82 99 100 25 93 76 60 100
0 0 0 0 0 3 1 0 0 28 87 4 4 0 0 0 0 0 0 1 17 12 100 100 78 100 98 77 100 100 100 100 100 88 17 89 99 100 100 72 100 100 100 100
0 59 10 0 0 0 0 8 26 11 21 4 2 10 0 0 0 0 0 0 0 0 0 0 68 0 4 69 95 100 100 100 100 100 100 84 100 100 97 71 100 100 90 99
31 1 2 4 0 23 5 23 92 57 45 1 0 0 0 0 0 0 0 0 0 0 0 0 0 0 5 5 5 93 100 100 100 100 100 100 100 91 87 71 93 30 99 100
0 0 1 4 0 100 70 30 83 74 7 2 0 60 0 0 0 0 0 0 0 0 0 0 18 0 0 0 0 0 2 42 100 100 100 100 100 74 45 32 100 100 27 77
0 0 0 42 9 19 91 68 92 100 41 4 0 1 0 0 0 0 0 0 0 0 0 0 0 0 0 1 0 0 0 0 39 100 100 100 100 79 35 100 8 5 60 23
3 0 0 1 1 10 2 11 51 13 0 22 0 0 0 2 11 6 0 0 31 100 0 0 0 0 0 0 0 0 0 0 0 0 0 21 30 0 0 5 5 74 100 1
5 29 0 91 55 6 92 62 33 68 86 74 4 0 5 12 27 0 0 43 100 100 74 40 5 4 0 0 0 0 0 27 0 0 5 3 0 0 0 0 29 100 49 4
61 25 0 0 64 3 3 27 100 89 100 100 54 84 87 86 97 12 95 100 83 51 90 98 5 0 0 0 0 0 0 0 36 40 0 0 0 0 0 15 99 46 49 97
5 34 19 4 27 11 4 3 85 27 27 99 100 88 100 100 100 100 100 100 100 76 100 100 89 20 0 0 0 0 0 0 64 5 1 0 0 0 26 5 8 100 100 100
33 47 82 80 0 5 4 86 74 100 27 100 100 100 100 100 100 100 100 100 100 100 100 94 84 0 0 0 0 0 0 0 0 96 1 1 0 2 8 11 100 92 100 67
100 100 100 97 82 3 5 8 6 13 46 100 100 100 100 100 100 100 100 100 100 100 100 95 69 0 0 0 0 0 0 0 0 5 95 59 92 100 81 100 100 100 90 5
100 91 69 100 100 76 8 7 55 53 30 100 100 100 100 100 100 100 100 100 100 100 99 100 3 0 0 0 0 0 0 0 0 20 93 84 100 94 100 92 100 100 49 2
100 100 100 78 93 100 98 100 100 100 98 100 100 100 100 100 100 100 100 100 100 100 100 100 2 0 100 82 30 4 0 0 2 41 100 100 100 100 100 100 100 51 2 0
100 99 100 100 92 65 13 15 97 18 78 98 100 100 100 100 100 100 100 100 57 97 100 30 0 0 6 45 96 97 98 80 92 100 98 87 100 93 100 100 75 3 0 39
98 100 100 100 60 68 90 100 92 100 100 52 96 100 100 100 100 100 100 100 100 96 84 0 0 0 90 100 100 100 100 100 94 59 98 100 100 100 100 100 7 29 0 100
100 100 100 100 100 94 12 100 96 41 78 94 98 100 100 100 100 100 100 100 100 79 14 0 1 0 100 100 100 100 100 100 100 100 95 7 3 13 11 0 95 98 0 79
100 100 100 100 100 87 99 33 70 83 95 99 100 100 100 57 49 20 6 35 5 12 0 0 3 3 100 100 100 100 100 95 100 50 7 0 0 4 0 8 21 0 26 9
100 100 100 100 100 100 100 22 5 68 6 100 78 100 100 100 100 100 10 5 0 0 1 0 0 38 100 100 100 100 100 100 92 3 0 0 93 100 53 8 0 0 2 0
96 100 100 100 100 99 100 100 76 3 88 5 93 64 73 95 100 59 12 1 1 0 0 0 0 40 100 100 100 100 100 100 64 0 3 98 100 44 100 6 0 0 2 0
87 100 100 100 100 100 100 100 100 100 97 95 35 21 63 5 100 100 5 0 0 0 0 0 0 67 100 100 100 100 100 71 32 1 94 100 75 0 3 4 27 6 4 1
100 100 100 100 99 100 100 100 100 97 100 100 100 5 89 100 98 82 100 23 0 0 0 0 0 69 100 100 100 100 100 80 46 8 52 48 0 0 0 12 66 4 32 84
97 98 100 100 100 100 100 100 100 100 100 100 100 97 100 100 69 96 99 2 1 0 0 0 0 99 100 100 100 100 100 28 46 64 28 32 0 0 46 89 64 30 50 21
87 100 100 100 100 100 100 100 100 100 100 100 100 100 100 100 87 69 71 17 0 0 0 0 0 0 34 96 93 83 88 0 39 98 1 0 0 0 18 45 100 100 96 100

GFSCGP_prec_cloud_069.txt.gz
Cloud_Cover
100 100 100 5 5 0 0 0 0 0 0 0 0 4 100 100 100 100 100 100 100 100 100 100 100 100 24 7 55 78 5 5 35 91 100 100 100 100 96 94 97 69 83 98
5 57 85 88 19 4 0 0 0 0 0 0 0 0 0 96 100 100 100 100 100 100 100 100 100 100 95 59 61 4 36 10 37 100 100 100 100 96 94 100 58 67 56 100
2 0 3 13 39 8 4 0 0 0 0 0 0 0 0 0 51 95 100 100 100 100 100 100 100 100 100 96 98 20 4 70 83 77 68 90 91 100 100 100 44 8 14 88
2 1 2 0 3 5 4 0 0 0 0 0 0 0 0 0 6 100 100 100 100 100 100 100 100 100 100 100 100 100 88 15 76 95 100 100 100 100 100 100 87 5 5 70
0 0 0 0 0 0 0 0 0 0 0 0 0 0 0 0 0 0 63 100 100 32 89 100 100 100 100 100 43 96 100 100 100 100 79 99 100 100 100 100 100 56 33 100
4 0 0 0 0 0 0 0 0 0 0 0 0 0 0 0 0 0 0 1 1 82 98 36 72 100 100 100 100 100 100 100 100 100 100 100 100 100 100 100 100 100 86 100
13 4 0 0 0 0 0 0 0 0 0 0 0 2 0 0 0 0 0 0 0 0 0 72 100 100 100 100 92 100 100 100 100 100 100 100 100 100 100 100 100 100 100 100
17 5 2 0 0 3 0 1 3 4 4 0 0 0 0 0 0 0 0 0 0 0 0 0 0 88 100 100 98 42 13 98 100 98 100 100 100 100 100 100 100 100 100 100
9 32 17 3 1 0 0 0 0 4 0 17 0 0 0 0 0 0 0 0 0 0 0 0 0 0 0 3 5 3 0 13 47 100 100 100 100 100 100 100 100 100 100 100
4 18 23 4 0 0 0 0 0 9 18 46 6 46 0 0 0 0 0 0 0 0 0 0 0 0 0 0 0 0 0 0 0 40 76 100 100 100 17 3 36 22 16 78
5 4 5 5 0 0 0 0 3 35 11 100 24 1 0 0 25 0 0 0 0 0 0 0 0 0 0 0 0 0 0 0 0 0 6 73 65 8 0 0 0 0 1 100
4 5 23 5 5 0 0 4 5 100 11 32 50 16 5 53 51 0 0 0 0 3 10 3 0 0 0 0 0 0 0 0 0 0 0 0 0 0 0 0 1 17 2 0
11 35 65 32 7 16 9 83 90 100 87 94 86 8 92 100 57 0 0 1 71 50 99 28 21 0 1 46 0 0 0 0 0 0 0 0 0 0 0 2 23 18 15 1
40 58 67 64 6 36 100 100 100 85 100 16 16 1 5 5 5 22 58 55 82 100 100 100 85 3 15 27 12 8 0 0 0 0 0 0 0 0 15 32 42 28 15 15
3 5 5 22 95 98 100 100 100 98 96 100 3 1 41 42 58 100 100 100 100 100 100 98 45 36 98 78 0 40 2 0 0 0 0 0 17 28 54 76 76 48 19 3
56 49 66 96 37 88 100 50 93 100 64 5 5 28 60 100 100 100 100 100 100 100 100 100 100 100 86 100 18 2 43 12 0 8 21 35 47 57 66 87 69 27 2 56
45 66 66 100 100 100 97 100 100 42 73 40 19 15 100 100 100 100 100 100 100 100 100 100 100 100 100 100 83 46 32 100 34 34 43 32 21 42 28 16 97 100 41 55
38 89 99 100 100 100 64 100 100 100 100 54 60 69 100 100 100 100 100 100 100 100 100 100 100 100 97 98 70 69 100 100 63 43 23 1 0 4 2 80 100 100 100 100
84 100 100 100 100 100 97 70 83 100 100 99 25 41 100 100 100 100 100 100 100 100 100 90 79 100 99 90 64 100 98 100 99 52 21 0 0 32 96 99 100 100 99 86
100 100 100 100 100 100 100 100 100 100 80 100 48 64 100 100 100 100 100 100 100 100 100 90 64 43 100 94 99 100 100 100 100 100 98 98 100 100 100 35 32 100 100 94
84 100 100 100 100 100 100 99 100 100 97 100 95 14 95 100 100 100 96 100 100 99 94 12 99 89 100 94 100 100 100 100 100 100 100 100 100 100 100 100 100 100 99 8
78 99 95 95 100 100 100 100 100 33 10 82 33 9 5 67 91 25 26 68 94 100 75 92 100 97 100 100 100 100 100 100 100 100 100 100 99 58 98 100 100 92 42 14
85 78 98 99 100 100 100 100 100 100 100 91 100 96 5 5 10 5 9 88 100 35 99 100 100 100 100 100 100 100 100 100 100 100 100 100 51 8 100 100 100 84 31 42
16 9 72 68 99 91 93 100 98 100 100 100 37 5 5 5 4 14 9 92 53 100 100 100 100 100 100 100 100 100 100 100 100 100 100 100 70 10 100 100 100 98 56 90
77 100 94 98 85 88 100 100 100 100 100 96 97 5 5 18 32 7 10 87 100 100 100 100 100 100 100 100 100 100 100 100 100 100 100 100 45 93 100 100 100 100 58 33
100 84 100 96 100 100 100 100 96 48 69 81 56 54 18 57 41 76 100 100 100 100 100 100 100 100 100 100 100 100 100 100 100 100 99 84 100 100 100 100 100 100 97 100

GFSCGP_prec_cloud_072.txt.gz
Cloud_Cover
28 5 7 100 94 21 5 0 0 0 0 0 83 100 100 100 100 100 100 100 100 100 100 100 69 42 6 17 13 100 100 100 100 100 100 100 100 100 100 100 100 100 100 70
5 5 5 5 90 100 79 19 0 0 0 0 0 56 100 100 96 100 100 100 100 100 100 100 91 94 5 22 8 95 99 100 100 97 31 12 5 84 87 100 100 100 97 62
3 5 3 5 7 49 90 84 23 3 0 0 0 0 0 0 31 100 100 100 100 100 100 100 100 100 99 61 69 66 88 99 92 38 20 97 44 75 99 100 100 100 67 57
0 0 5 5 0 3 12 7 75 31 5 0 0 0 0 0 0 52 100 100 100 100 100 100 100 100 100 100 100 69 5 27 4 48 69 5 60 83 100 100 100 100 96 6
0 0 0 0 0 0 0 0 5 5 22 5 3 0 0 0 0 0 14 97 100 100 100 100 100 100 100 100 100 100 76 64 100 82 20 9 73 100 100 100 100 100 35 73
82 5 3 0 0 0 0 0 0 0 3 5 11 2 0 0 0 0 0 0 0 0 12 100 100 100 100 100 100 50 55 71 94 100 72 79 44 100 100 100 100 100 86 90
100 87 7 5 4 0 0 0 0 0 0 0 1 0 0 0 0 0 0 0 0 0 0 0 23 49 94 100 80 100 100 100 89 93 93 100 100 100 100 100 100 100 75 47
78 100 60 97 5 5 5 5 4 4 2 0 0 0 0 0 0 0 0 0 0 0 0 0 0 0 0 53 100 83 23 98 100 100 100 100 100 100 100 100 100 100 97 100
9 99 100 98 5 5 5 5 2 0 0 38 0 0 0 0 0 0 0 0 0 0 0 0 0 0 0 0 6 52 55 95 83 6 100 100 100 100 100 100 100 100 100 100
5 2 100 100 61 5 3 2 4 26 5 44 0 0 0 0 0 0 0 0 0 0 0 0 0 0 0 0 0 0 0 3 66 100 84 62 96 100 100 100 100 100 100 100
0 4 88 52 4 5 2 0 6 12 5 40 34 0 0 0 76 4 3 0 0 0 0 0 0 0 0 0 0 0 0 0 0 0 1 65 100 100 100 100 38 14 99 100
5 5 5 20 4 5 5 0 7 83 22 43 64 14 0 90 100 68 8 1 0 0 0 0 2 97 50 0 0 0 0 12 0 0 0 0 0 0 22 94 82 46 86 4
75 42 30 56 6 5 5 5 13 100 97 96 94 14 0 3 86 84 4 2 2 5 29 6 97 100 100 1 1 56 16 4 10 0 0 0 0 0 0 0 0 0 4 17
100 86 66 41 16 2 5 1 6 100 100 72 64 4 88 2 4 5 0 0 4 5 69 49 92 100 100 7 0 100 99 100 13 0 0 0 0 0 0 0 0 12 7 42
18 23 7 5 5 5 5 5 42 64 40 100 100 56 78 6 4 5 5 83 97 97 22 96 100 97 100 28 1 100 100 100 0 0 0 0 0 0 0 18 35 43 43 51
100 78 82 84 31 5 75 47 32 100 100 75 100 100 100 93 54 59 100 78 100 100 100 100 100 100 50 83 59 100 100 100 37 0 0 0 0 32 52 93 81 98 100 75
41 55 100 74 6 11 100 86 6 100 100 100 100 100 95 76 99 100 96 100 100 100 100 100 100 100 100 100 93 81 100 100 78 58 82 40 69 100 100 100 100 100 99 70
100 93 100 83 93 91 28 7 100 100 100 100 100 100 100 100 100 97 100 100 100 100 100 100 100 100 100 100 100 100 92 100 100 100 100 99 96 100 100 100 100 100 88 84
100 100 100 100 96 22 100 15 100 100 100 100 100 100 100 100 100 100 100 100 100 100 100 100 100 100 100 100 98 100 100 74 100 99 82 68 56 96 100 100 100 75 86 82
100 100 100 100 100 94 100 28 100 91 100 60 100 100 100 96 100 100 100 100 99 100 100 100 100 100 100 100 100 100 100 57 53 100 99 64 41 42 82 95 52 100 91 98
100 100 98 83 100 96 91 88 100 94 99 100 100 100 100 100 89 91 76 100 97 100 100 100 100 100 100 100 100 100 100 44 86 100 91 69 64 31 30 76 64 100 100 100
100 100 100 98 100 70 82 100 99 72 100 100 100 75 92 100 69 7 100 6 77 100 100 100 100 100 100 100 100 100 100 100 100 100 100 100 85 94 100 100 100 100 92 100
94 15 83 76 86 96 60 73 76 93 100 100 100 53 43 63 5 5 6 11 99 100 100 100 76 99 100 100 100 100 100 100 100 100 100 100 100 100 100 100 100 100 100 99
44 78 100 95 99 84 25 97 100 100 100 98 93 76 23 43 50 100 9 26 38 52 54 100 100 100 98 59 100 99 100 100 95 100 100 100 100 100 100 82 100 100 100 90
100 100 100 100 79 100 100 100 90 55 100 99 32 5 65 66 93 75 47 38 92 95 100 70 54 9 6 27 95 100 100 100 100 100 100 100 100 100 99 90 95 100 98 100
100 100 100 100 100 100 99 75 96 100 100 100 45 27 58 90 100 100 100 100 92 99 100 98 68 100 100 100 100 100 100 100 100 100 100 100 100 100 100 100 100 100 100 100

GFSCGP_prec_cloud_078.txt.gz
Cloud_Cover
0 0 0 0 0 0 0 0 0 0 0 0 0 0 0 0 0 0 36 100 100 100 100 100 100 100 100 100 100 100 100 100 100 95 100 100 100 100 100 100 69 100 100 97
0 0 0 0 0 0 0 0 0 0 0 0 0 0 0 0 0 0 2 100 100 100 100 100 100 100 100 100 100 100 100 100 100 100 100 100 100 100 100 100 100 100 100 49
1 2 2 0 0 0 0 0 0 0 0 5 0 1 0 3 0 0 0 98 100 100 100 100 100 100 100 100 100 100 100 100 100 100 100 100 100 100 100 100 93 100 100 94
0 0 5 65 7 0 0 4 0 0 0 0 4 10 3 10 4 0 0 2 100 100 100 100 100 100 100 100 100 100 100 100 100 100 100 100 100 100 100 100 100 100 100 81
0 0 0 24 96 15 3 4 0 0 0 4 5 3 100 58 6 1 0 0 0 100 100 64 100 100 100 100 100 100 100 100 100 100 88 100 100 100 100 100 100 100 100 87
0 4 0 0 6 80 16 4 2 0 2 1 5 3 86 97 99 5 4 0 0 8 100 100 100 100 100 100 100 100 100 100 100 100 100 100 100 100 100 100 100 100 93 71
30 15 3 0 0 2 29 38 50 50 86 18 0 5 9 27 100 98 11 0 0 0 66 100 100 100 100 100 100 100 95 100 100 100 100 100 100 100 98 100 100 100 93 57
7 72 85 6 1 33 98 100 100 100 94 94 10 3 2 5 6 52 100 49 1 0 3 9 98 65 100 100 100 100 100 100 100 100 100 100 100 100 100 100 100 98 81 100
7 38 16 2 5 4 64 85 82 61 82 92 29 13 6 1 0 0 4 18 84 6 0 0 0 2 86 100 100 94 100 100 100 100 100 100 100 100 100 100 100 90 100 100
8 30 30 97 24 5 10 58 89 90 14 13 77 100 100 28 4 0 1 4 2 9 11 3 1 0 0 0 0 1 5 100 98 90 89 100 100 100 100 100 100 100 100 100
7 79 70 71 87 46 82 33 70 55 89 88 16 99 94 100 23 4 2 5 5 5 2 5 5 0 0 4 100 100 100 12 100 100 79 41 17 57 88 100 100 100 100 100
84 96 98 100 100 100 67 12 100 100 72 91 100 26 60 9 4 5 5 5 5 2 0 5 2 5 5 4 0 35 76 98 7 100 100 99 46 100 52 100 100 100 100 100
100 52 100 100 100 100 64 74 24 100 100 78 100 13 27 25 100 80 58 27 5 5 5 5 5 5 5 5 5 0 0 4 4 6 62 5 100 100 100 100 100 100 100 100
18 90 100 100 100 100 100 100 100 100 100 83 47 16 78 14 100 100 100 100 17 5 5 5 5 5 5 5 5 5 2 0 43 49 26 33 3 100 100 100 100 100 100 100
79 37 100 100 100 100 100 100 100 100 90 99 5 4 7 31 100 100 100 60 5 5 5 5 5 5 5 9 5 4 4 8 93 79 39 11 18 5 100 100 100 100 100 100
79 44 100 100 100 100 100 68 98 100 59 5 5 5 5 99 100 100 100 100 100 98 6 5 5 5 22 26 21 1 5 14 50 33 75 46 11 6 21 1 3 99 74 0
100 100 100 67 100 100 91 100 70 40 71 100 94 56 100 100 100 100 100 92 10 42 42 94 100 100 99 99 95 91 91 60 57 100 100 87 51 12 2 2 0 0 0 0
98 100 100 51 99 91 100 99 19 20 58 97 100 100 100 100 100 100 97 84 61 100 100 100 100 100 100 100 100 100 100 100 100 97 41 94 83 50 8 70 0 0 0 0
100 100 100 100 100 100 100 100 100 100 22 73 100 100 100 74 100 100 91 100 95 100 100 100 100 100 100 100 100 100 100 100 100 100 100 81 64 55 8 46 0 6 27 4
100 100 100 100 100 100 100 89 63 17 8 96 44 97 79 98 100 90 92 30 100 100 100 100 100 100 100 100 100 100 100 100 100 100 59 20 3 60 88 2 13 59 10 12
71 100 94 98 100 97 76 20 6 83 97 74 57 53 83 100 100 100 94 95 100 100 100 100 100 100 100 100 100 100 100 100 100 100 14 48 0 0 24 89 100 100 100 100
49 94 100 100 100 78 100 52 72 65 10 43 65 100 100 100 100 97 17 54 100 100 100 100 100 100 100 100 100 100 100 100 100 100 96 87 43 31 100 100 100 100 100 100
94 100 99 96 99 97 93 99 96 90 31 28 62 49 100 93 97 74 75 66 100 100 100 100 100 100 100 100 100 100 100 100 100 100 100 100 100 100 100 100 100 100 100 100
92 100 99 100 98 100 100 91 61 65 99 100 100 100 100 100 100 76 74 78 100 100 81 45 99 100 100 100 100 100 100 100 100 100 100 100 100 100 100 100 90 58 65 67
100 91 96 61 99 100 100 100 100 100 100 97 98 99 100 89 94 100 100 100 100 72 38 100 87 100 100 100 72 100 100 100 100 100 100 100 100 100 100 100 100 84 79 64
100 100 100 100 100 100 100 100 99 100 98 98 86 34 91 100 97 100 100 98 100 100 90 87 95 100 100 82 98 100 100 100 100 100 100 100 100 100 100 100 100 100 100 100

GFSCGP_prec_cloud_084.txt.gz
Cloud_Cover
0 0 0 0 0 3 5 1 0 0 6 38 0 0 0 0 0 0 0 0 0 0 0 0 0 0 11 100 100 100 100 100 100 100 100 100 100 100 100 100 100 100 100 100
0 0 0 0 0 0 3 0 0 0 0 2 0 0 0 0 0 0 0 0 0 0 0 2 0 0 0 1 88 100 100 100 100 100 100 100 100 100 100 100 100 100 100 100
0 0 2 0 0 0 0 0 0 0 0 2 5 2 2 0 0 0 0 0 0 0 0 0 0 0 0 0 73 100 100 100 100 100 100 100 100 100 100 100 100 100 100 100
0 0 2 0 0 0 0 0 5 5 53 37 86 15 0 0 30 77 5 0 0 0 0 0 0 0 0 0 11 100 100 100 100 100 100 100 100 100 100 100 100 100 100 100
6 4 4 3 1 0 0 5 5 5 6 31 2 100 0 0 2 0 1 22 0 0 0 0 0 0 0 0 0 100 100 100 86 100 100 100 100 100 100 100 100 100 100 100
83 49 5 2 4 5 4 8 5 5 5 35 0 85 0 3 52 44 100 36 0 0 1 1 0 0 0 0 0 78 100 100 93 53 100 100 100 100 100 100 100 100 100 100
99 100 66 38 64 83 70 86 21 69 99 80 34 100 50 79 100 98 100 5 0 0 0 5 5 5 5 4 5 1 100 100 100 56 89 64 100 100 100 100 100 100 100 100
54 100 100 98 100 100 100 100 100 73 44 68 38 61 89 91 100 100 100 45 29 0 0 0 4 40 68 85 37 5 19 100 100 100 100 67 100 100 100 100 100 100 100 100
50 93 100 100 27 99 89 43 81 100 82 26 2 4 68 94 100 100 100 6 1 0 0 0 8 33 5 5 22 8 5 22 100 100 100 100 100 100 100 100 100 100 100 100
100 16 98 69 62 83 100 92 100 100 34 79 18 67 100 27 100 100 100 100 71 4 5 5 97 12 5 3 5 7 5 2 25 99 100 66 83 65 100 100 100 100 100 100
100 82 38 54 72 94 92 75 98 68 84 62 14 18 100 91 100 99 100 32 84 98 8 21 37 94 42 70 17 89 49 5 12 100 100 100 88 93 66 81 100 100 100 100
100 95 83 5 10 82 100 98 100 100 65 100 99 2 100 32 88 100 100 100 84 21 100 71 24 36 98 22 29 69 89 48 5 58 100 100 100 100 100 52 100 100 100 100
91 90 57 29 53 87 100 100 100 100 100 89 98 22 100 100 12 98 100 100 100 100 36 79 99 26 9 11 89 18 20 5 2 3 25 79 100 100 26 30 19 100 100 98
98 100 98 6 71 96 100 96 75 100 100 95 88 47 84 100 96 95 100 100 100 97 88 2 0 3 3 0 5 5 5 36 82 81 23 92 62 68 100 100 45 16 89 9
79 98 76 22 100 30 97 52 85 58 100 100 99 72 5 86 100 100 100 100 81 69 5 92 13 73 5 0 2 5 5 5 1 12 4 84 52 20 76 100 100 100 99 69
100 86 81 5 6 91 100 99 100 94 100 100 100 7 97 9 100 100 80 93 99 96 4 31 16 40 99 35 34 12 76 46 0 4 4 2 5 5 1 17 100 100 50 100
5 5 5 5 100 99 64 100 51 100 76 84 100 38 73 1 34 6 2 47 5 32 28 6 89 14 4 1 0 3 2 0 1 1 0 0 5 6 0 3 0 95 100 100
5 45 89 62 100 76 19 100 100 90 100 63 88 44 80 100 100 64 60 68 92 99 96 12 2 5 3 2 0 0 5 5 28 41 8 5 16 96 50 2 0 0 82 100
65 92 74 89 96 38 8 96 98 81 100 99 100 86 100 80 52 7 100 100 16 41 4 4 5 5 4 52 73 98 100 100 100 100 100 86 76 15 62 96 7 0 27 100
10 5 21 80 100 96 80 100 95 100 100 100 100 62 38 18 16 5 5 5 5 4 1 4 5 8 100 100 100 100 100 100 100 100 100 100 100 100 71 5 5 5 1 100
54 89 92 84 85 38 98 40 5 85 64 59 8 28 84 91 84 33 5 5 7 21 5 9 100 100 100 100 100 100 100 100 100 100 100 100 100 100 100 100 39 30 2 78
47 50 98 91 98 86 100 87 99 98 85 32 7 14 9 17 7 6 60 5 22 10 61 100 100 100 100 100 100 100 100 100 100 100 100 100 100 100 100 100 100 83 45 38
68 89 95 95 78 16 32 62 73 73 100 97 98 100 10 60 5 44 47 98 100 99 100 100 100 100 100 100 100 100 100 100 100 100 100 100 100 100 100 100 100 100 100 41
99 91 65 30 75 45 100 85 92 98 67 10 22 87 100 100 100 100 39 24 36 100 100 100 100 100 100 100 100 100 100 100 100 100 100 100 100 100 100 100 100 100 67 1
70 61 100 100 71 100 100 100 91 62 100 100 100 100 74 46 98 100 33 71 86 100 100 100 100 100 100 100 100 100 100 100 100 100 100 97 100 100 100 89 100 97 12 24
91 82 100 100 100 100 100 100 100 100 100 100 100 100 84 100 99 71 88 100 100 100 100 100 100 100 100 100 100 100 100 100 100 100 72 0 0 0 90 100 44 97 65 45

GFSCGP_prec_cloud_087.txt.gz
Cloud_Cover
0 0 0 0 0 0 0 0 0 0 0 0 0 0 0 0 0 0 0 0 0 0 3 4 0 0 0 0 0 5 0 47 88 100 100 100 100 100 100 100 100 100 100 100
0 0 0 0 0 0 0 0 0 0 0 0 0 1 0 0 0 0 0 0 0 0 0 0 0 0 0 0 0 0 2 4 52 100 100 100 100 100 93 100 100 100 100 100
4 0 0 0 0 0 0 0 0 0 0 0 0 0 0 0 0 0 0 0 0 0 0 0 0 0 0 0 0 0 0 0 3 88 100 100 100 100 100 100 100 100 100 100
4 0 0 0 0 0 0 0 0 0 0 0 0 0 0 0 0 0 0 0 0 0 0 0 0 0 0 0 0 0 0 0 0 1 45 100 100 100 100 100 100 100 100 90
5 3 0 5 1 3 4 0 0 0 0 0 0 0 0 0 0 0 2 1 8 2 0 0 0 0 0 0 0 0 0 0 0 0 0 80 99 100 100 100 100 100 100 100
5 5 5 5 5 5 5 4 27 21 0 0 0 1 0 0 25 0 0 17 76 91 5 11 2 0 0 0 0 0 0 0 0 0 0 22 92 96 100 100 100 100 100 100
17 58 98 45 27 57 18 96 64 26 5 0 0 15 0 1 11 92 93 19 29 96 92 100 65 0 0 0 0 0 0 0 0 0 1 100 100 92 96 99 100 100 100 100
100 100 99 100 100 100 100 85 100 83 5 1 3 0 0 3 67 98 99 100 100 100 100 55 7 0 0 0 0 0 0 0 0 0 0 93 97 100 100 56 95 100 100 100
79 99 100 96 100 100 100 98 96 100 98 100 90 0 0 88 75 9 76 100 100 100 100 98 92 0 0 0 0 0 1 0 0 0 0 3 100 100 100 89 88 6 99 100
18 95 100 99 100 100 100 96 100 100 99 100 94 1 1 68 100 100 76 100 100 100 100 48 51 5 1 0 0 1 3 0 0 3 0 0 76 100 100 100 45 8 4 98
93 64 100 100 100 100 85 100 100 100 98 96 76 1 97 90 92 100 93 84 64 100 100 77 72 35 5 3 0 3 3 0 0 5 0 0 0 99 100 100 100 99 20 90
100 100 100 100 100 99 15 83 7 100 99 99 100 18 100 100 100 93 100 100 99 100 100 100 80 41 1 5 5 4 0 2 0 5 5 0 0 0 100 100 100 100 92 50
100 100 100 100 97 50 82 88 82 100 100 99 100 29 100 100 50 61 100 100 98 99 100 77 16 91 83 3 5 5 5 0 4 5 0 1 3 5 29 100 100 93 100 100
100 100 100 96 93 80 65 38 5 37 100 100 98 100 100 95 100 94 100 83 100 100 100 97 100 100 94 10 5 4 5 0 0 1 5 1 0 0 0 28 100 100 100 73
100 100 93 77 5 62 18 93 9 0 20 86 33 100 100 100 84 99 5 1 31 99 100 100 93 41 100 100 5 69 5 2 1 0 1 5 11 2 0 0 9 100 66 25
100 100 11 53 5 5 19 1 0 2 98 79 14 2 100 35 7 10 7 48 97 100 100 100 100 71 5 5 34 4 5 4 5 4 0 0 4 6 1 0 0 0 31 100
100 70 5 5 0 4 1 90 7 100 92 97 20 54 8 14 100 53 24 13 84 80 71 13 10 5 84 13 2 5 7 7 4 46 0 0 2 28 5 0 0 0 100 100
83 12 5 4 3 10 2 82 5 7 99 89 96 100 100 52 48 38 99 83 67 36 2 36 4 4 5 43 3 5 73 23 5 5 4 0 4 4 4 0 0 0 0 6
99 95 84 61 5 3 4 9 56 98 100 100 95 100 96 60 11 97 99 4 16 69 11 5 5 92 5 10 3 11 3 0 1 85 89 93 95 37 18 5 0 0 0 0
56 5 5 5 11 5 49 92 100 100 100 100 100 93 32 22 8 3 4 5 2 0 4 0 0 0 5 19 15 78 100 100 100 100 100 100 100 100 100 87 100 19 1 1
65 35 30 9 71 33 98 44 78 100 94 49 26 21 20 63 59 10 2 0 2 3 0 0 8 92 100 100 100 100 100 100 100 100 100 100 100 100 100 100 100 100 44 5
70 90 78 100 100 91 100 93 100 90 99 27 100 68 36 32 70 45 44 12 5 5 11 96 100 100 100 100 100 100 100 100 100 100 100 100 100 100 100 100 100 98 97 8
58 98 88 52 10 50 81 98 100 62 44 54 80 100 100 100 100 100 55 5 4 22 100 97 100 100 100 100 100 100 100 100 100 100 100 100 100 100 100 100 100 100 100 99
96 70 13 5 47 70 88 90 91 82 37 52 97 100 100 90 98 34 100 89 100 100 100 100 100 100 100 100 100 100 100 100 100 100 100 100 100 100 100 100 100 100 100 100
52 73 14 44 30 100 96 100 91 98 100 80 100 100 100 100 97 97 96 100 100 100 100 100 100 100 100 100 100 100 100 100 100 100 100 100 100 100 100 100 100 100 100 100
44 16 67 89 88 100 100 100 100 99 100 100 100 100 100 100 100 100 100 100 100 100 100 100 100 100 100 100 100 100 100 100 97 96 100 100 100 100 100 100 100 100 100 99

GFSCGP_prec_cloud_093.txt.gz
Cloud_Cover
0 0 0 0 0 0 0 0 0 0 0 0 0 0 0 0 0 0 0 0 0 0 0 0 0 0 1 9 99 5 5 0 0 0 2 40 100 100 100 100 100 100 100 100
0 0 0 0 0 0 0 0 0 0 0 0 0 0 0 0 0 0 0 0 0 0 0 0 0 0 0 0 0 4 2 0 0 1 0 0 0 2 71 99 100 100 100 100
7 0 0 0 0 0 0 0 0 0 0 0 0 0 0 0 0 0 0 0 0 0 0 0 0 0 0 0 0 0 0 0 0 0 0 0 0 0 0 2 8 89 95 100
95 35 3 1 5 0 0 0 0 0 0 0 0 0 0 0 0 0 0 0 0 0 0 0 0 0 0 0 0 0 0 0 0 0 0 0 0 0 0 0 1 2 72 91
100 91 20 83 5 3 2 0 0 0 0 0 2 1 5 0 4 4 0 0 0 0 0 0 0 0 0 0 0 0 0 0 0 0 0 0 0 0 0 0 0 0 0 0
100 5 100 100 100 72 5 4 4 0 0 2 4 0 75 52 98 7 0 4 0 0 0 0 0 0 0 0 0 0 0 0 0 0 0 0 0 0 0 0 0 0 0 0
59 98 78 34 64 100 8 16 5 1 0 0 4 3 89 7 18 4 1 0 1 0 0 0 0 0 0 0 0 0 0 2 2 3 1 0 0 0 0 0 0 0 0 0
75 88 100 99 40 24 100 98 98 22 5 5 5 4 82 22 5 5 3 4 0 0 0 0 0 0 0 0 0 4 100 100 45 46 1 0 0 0 0 0 0 0 0 0
50 30 100 100 100 100 100 100 98 75 5 5 5 20 70 94 5 24 56 2 0 4 0 0 0 0 0 9 35 49 98 81 78 87 20 0 0 0 0 0 0 0 0 0
30 19 100 100 100 100 100 99 96 100 87 83 4 6 100 24 49 6 2 1 5 2 5 5 2 0 1 97 100 100 55 43 97 65 5 0 0 0 0 0 0 0 0 0
100 65 76 100 100 100 100 100 100 100 100 100 91 40 100 5 5 2 15 85 44 12 65 31 2 3 13 100 100 100 100 90 98 99 100 59 2 0 0 0 0 0 0 0
100 100 95 100 100 100 100 100 100 100 100 100 100 97 61 16 0 0 1 98 74 100 100 98 98 91 12 80 100 100 100 100 100 100 100 100 100 27 0 0 0 0 0 0
100 100 100 100 100 100 100 100 100 100 93 96 100 100 24 99 100 9 16 16 99 36 100 68 29 95 80 100 100 100 100 100 100 100 98 95 100 100 38 2 0 0 0 0
100 100 100 100 100 100 100 100 100 100 100 100 100 16 5 0 0 11 82 2 41 99 100 100 100 100 65 12 87 100 98 65 100 83 5 71 72 100 100 20 0 0 0 0
100 100 100 100 100 100 100 100 100 100 100 100 99 4 4 6 12 3 4 5 100 100 100 100 99 88 89 5 2 31 100 99 56 5 3 0 4 17 100 100 11 0 0 0
100 100 100 100 100 100 100 100 100 100 100 98 5 3 18 5 29 7 47 72 36 100 100 100 99 100 73 44 8 76 54 94 47 66 78 63 5 5 6 100 100 37 3 0
100 100 100 100 100 100 100 100 100 100 68 18 58 36 6 100 88 47 100 82 5 9 89 12 65 70 97 5 5 0 62 5 1 8 6 82 11 4 5 65 100 100 96 5
100 100 100 100 100 100 100 100 100 41 63 81 72 87 54 23 6 98 100 33 62 58 30 37 25 7 5 5 53 5 3 1 0 0 1 5 5 5 5 5 5 19 83 29
100 100 100 100 100 100 100 83 78 84 97 100 100 82 98 57 5 83 84 1 0 8 22 5 2 1 0 0 0 0 2 5 5 4 2 0 3 4 22 7 4 5 4 6
100 100 100 100 100 100 20 10 72 100 80 100 100 47 5 20 100 96 17 32 9 90 100 99 6 6 5 1 0 0 0 2 9 17 36 43 13 15 6 5 5 5 5 4
100 100 100 100 100 60 63 60 86 87 24 5 5 5 5 17 24 32 74 55 10 97 100 100 100 100 11 46 100 100 100 100 100 100 100 100 100 100 100 100 93 46 5 4
100 100 100 98 100 90 38 66 77 34 8 61 38 15 74 99 100 100 100 67 95 100 100 15 99 100 100 100 100 100 100 100 100 100 100 100 100 100 100 100 100 100 100 100
100 100 86 87 51 65 69 36 34 53 95 99 100 99 44 100 100 100 100 100 100 100 85 100 100 100 100 99 100 100 100 100 100 100 100 100 100 100 100 93 100 100 100 100
80 6 28 90 17 87 8 6 8 69 92 100 99 82 100 100 100 100 100 99 97 100 100 100 100 100 100 100 100 100 100 100 100 100 100 63 34 100 100 92 94 100 100 100
5 8 49 60 5 5 7 5 20 100 100 100 100 100 100 100 100 100 100 100 100 100 94 100 100 100 100 100 100 100 100 100 100 100 100 100 100 100 100 100 100 100 100 100
72 100 62 7 64 68 19 92 100 100 100 100 100 100 100 100 100 100 100 100 100 100 100 100 100 100 100 100 100 100 100 100 100 100 100 100 100 100 100 100 100 100 100 100

GFSCGP_prec_cloud_096.txt.gz
Cloud_Cover
0 0 0 0 0 0 0 0 0 0 0 0 0 0 0 0 0 0 0 0 0 0 0 3 4 2 1 14 93 100 100 100 13 19 27 27 5 45 97 46 74 100 86 100
1 0 0 0 0 0 0 0 0 0 0 0 0 0 0 0 0 0 0 0 0 0 0 0 0 0 0 0 0 0 53 97 95 78 98 100 59 30 13 71 59 96 93 57
97 2 9 5 0 0 0 0 0 0 0 0 0 0 0 0 0 0 0 0 0 0 0 0 0 0 0 0 0 0 0 0 0 0 0 1 1 3 12 80 53 53 98 80
81 5 5 5 5 0 3 1 0 0 0 0 0 0 0 1 0 0 0 0 0 0 0 0 0 0 0 0 0 0 0 0 0 0 0 0 0 0 0 2 0 1 4 0
6 5 5 5 5 4 6 5 0 0 0 0 1 0 5 4 0 3 5 0 0 0 0 0 0 0 0 0 0 0 0 0 0 0 0 0 0 0 0 0 0 0 0 1
98 5 5 5 5 5 5 5 0 0 0 0 5 4 68 4 46 100 100 4 0 1 1 0 0 0 4 5 2 0 0 0 0 0 0 0 0 0 0 0 0 0 0 0
100 100 34 5 5 5 5 5 0 0 0 0 3 0 22 11 98 90 55 98 90 43 4 0 0 0 0 0 0 0 0 0 0 0 0 1 5 4 0 0 0 0 0 0
100 100 100 100 95 97 100 89 10 4 5 4 5 2 5 5 5 5 6 11 82 100 89 3 0 0 0 0 0 0 0 0 0 0 0 44 88 58 82 26 0 0 0 0
25 99 100 100 100 100 100 100 100 99 6 5 5 5 5 5 11 8 9 5 22 99 75 5 5 0 0 5 0 0 0 0 0 4 100 93 82 83 60 3 0 0 0 0
100 76 100 100 100 100 100 100 100 100 82 80 5 5 18 100 69 49 8 5 9 6 5 5 0 0 0 0 0 0 0 3 91 42 100 100 100 100 5 3 0 0 0 0
73 32 96 100 100 100 100 100 100 100 100 89 64 32 100 77 100 83 5 5 18 92 5 0 1 5 1 1 4 10 4 5 80 98 98 71 100 100 86 56 48 3 0 0
84 94 98 100 100 100 100 100 100 100 100 100 100 43 14 36 85 5 5 43 79 5 0 0 44 61 93 39 86 80 97 87 100 100 100 100 98 100 100 100 100 83 4 0
97 100 100 100 100 100 100 100 100 100 100 100 100 58 47 95 95 98 33 83 6 0 0 0 2 44 90 100 99 40 84 100 100 100 100 100 96 100 100 94 64 100 88 0
100 100 100 91 100 100 100 100 100 100 100 100 90 62 100 100 99 44 5 5 2 0 0 0 0 35 100 94 100 87 91 54 100 100 99 92 100 100 100 100 100 100 100 26
98 100 100 100 100 100 100 100 100 100 100 97 100 100 100 100 87 99 5 5 5 5 5 11 100 100 100 100 100 100 100 5 95 100 100 100 100 86 45 100 100 86 13 98
56 99 100 100 100 100 100 100 100 100 100 100 100 100 100 100 96 5 5 13 20 5 5 5 60 100 100 100 100 100 80 90 24 100 100 100 94 95 81 29 7 5 5 1
100 100 100 100 94 79 97 100 97 100 100 100 100 100 100 30 5 5 9 5 87 78 6 5 21 79 100 100 100 89 6 10 0 15 99 100 100 100 100 46 7 5 1 4
77 95 100 100 80 89 100 100 100 100 100 96 60 72 6 97 7 5 64 5 1 5 3 4 0 1 31 45 25 5 5 3 3 0 0 2 36 29 17 5 18 5 50 5
12 90 92 100 100 100 100 54 96 100 100 100 79 95 14 65 20 1 5 2 3 4 5 5 5 2 4 2 0 0 0 1 0 0 0 0 0 0 1 5 5 52 22 33
98 92 95 100 100 100 99 96 63 94 72 27 65 55 38 7 17 2 3 3 5 23 18 5 5 25 54 5 5 5 5 0 0 0 0 0 0 0 0 0 0 3 2 4
100 100 100 100 100 100 89 41 86 81 19 64 46 29 87 100 27 16 48 14 69 90 80 7 99 100 98 99 35 81 100 96 100 100 100 100 100 100 100 62 37 13 5 5
100 100 100 100 100 98 48 75 62 76 5 5 24 99 100 89 75 78 100 100 100 100 100 100 100 91 100 100 100 100 100 100 100 100 100 100 100 79 100 100 100 100 100 100
100 100 100 98 70 5 5 6 42 8 86 99 91 100 77 100 100 100 100 100 100 100 100 100 99 93 98 89 100 100 94 98 95 99 100 100 100 100 97 38 67 100 100 100
100 100 61 5 5 38 5 5 9 99 41 76 100 96 100 100 100 100 100 100 100 100 100 100 100 100 100 99 99 100 88 100 100 100 100 100 100 100 100 100 82 62 90 100
94 7 8 18 36 5 5 13 21 95 98 100 100 100 100 100 100 100 100 100 100 100 100 100 100 100 100 100 100 100 100 100 100 100 100 100 100 100 100 100 100 100 95 73
34 91 100 18 74 99 7 5 6 97 100 78 84 100 100 100 100 100 100 100 100 100 100 100 100 100 100 100 100 100 100 100 100 100 100 100 100 100 100 100 100 100 100 100

GFSCGP_prec_cloud_102.txt.gz
Cloud_Cover
0 0 0 0 0 0 0 0 0 0 0 0 0 0 0 0 0 0 0 0 0 0 0 0 0 47 79 95 94 5 5 9 15 98 96 47 6 2 2 4 19 88 100 100
0 0 0 0 0 0 0 0 0 0 0 0 0 0 0 0 0 0 0 0 0 0 0 0 0 3 4 5 5 4 2 2 1 4 6 12 10 4 0 2 0 7 41 86
0 0 0 0 0 0 0 0 0 0 0 0 0 0 0 0 0 0 0 0 0 0 0 0 0 0 0 0 0 0 0 0 0 0 0 0 0 0 0 0 0 0 0 2
3 2 7 4 0 0 0 0 0 0 0 0 0 0 0 0 0 0 0 0 0 0 0 0 0 0 0 0 0 0 0 0 0 0 0 0 0 0 0 0 0 0 0 0
0 0 1 1 0 4 58 5 5 0 0 0 0 0 0 0 0 0 0 0 0 0 0 0 0 0 0 0 0 0 0 0 0 0 0 0 0 0 0 0 0 0 0 0
100 52 34 8 4 0 1 0 0 0 0 0 4 0 1 4 30 48 2 0 0 0 0 0 0 0 0 1 0 0 0 0 0 0 0 0 0 0 0 0 0 0 8 3
86 66 100 100 100 86 71 62 68 46 98 63 78 79 67 14 50 10 22 5 2 5 3 0 0 0 0 0 3 4 0 0 0 0 0 0 0 0 0 0 0 0 10 35
100 100 96 46 76 94 99 100 94 100 99 99 100 97 96 78 10 5 5 9 5 5 5 5 5 5 2 0 0 5 5 5 3 0 0 0 0 4 5 5 1 2 38 20
100 100 100 98 100 100 99 100 95 100 99 97 89 88 99 31 72 10 5 5 4 4 5 62 64 6 7 6 5 5 5 3 2 1 0 0 0 3 5 8 6 8 50 13
100 100 97 100 100 100 100 100 100 100 99 96 89 100 100 84 62 99 5 5 3 4 5 5 5 5 5 5 5 5 5 5 5 5 6 7 5 5 67 98 99 97 54 100
100 100 100 100 100 100 100 100 100 100 87 98 93 96 94 94 100 98 30 21 5 5 5 5 5 5 5 5 65 99 100 87 22 5 5 5 5 15 100 98 96 35 5 5
100 100 100 100 100 100 100 100 100 100 51 92 100 68 100 94 90 62 99 18 5 5 5 5 5 5 5 5 5 6 84 94 100 100 79 77 96 14 48 95 37 68 99 94
88 100 94 100 100 100 100 100 100 100 91 98 87 72 100 100 100 100 91 5 5 5 5 5 5 5 10 19 6 2 2 1 0 0 3 31 55 8 14 69 100 91 55 17
99 98 100 100 100 100 100 100 100 82 100 28 97 82 100 100 100 100 67 16 5 5 6 5 5 5 6 5 0 0 0 0 0 0 4 50 100 91 100 100 100 100 86 23
97 100 60 92 87 100 98 77 80 100 90 100 92 100 100 96 95 31 5 5 15 6 8 10 5 5 5 5 1 3 0 0 1 0 4 88 100 65 100 100 100 100 92 100
100 100 100 88 100 100 100 100 100 60 69 95 89 49 100 45 62 50 88 84 41 5 5 5 5 5 5 5 5 3 5 2 0 0 5 95 100 98 96 100 100 100 100 100
100 100 100 92 100 100 20 62 76 60 5 5 5 89 98 97 100 100 84 28 5 20 42 5 6 5 5 5 6 6 6 5 5 0 4 100 100 60 54 99 100 71 100 100
100 100 100 100 100 58 82 60 72 28 11 12 58 96 100 99 85 87 77 7 50 66 61 52 66 42 38 64 82 79 76 54 30 5 38 100 100 97 85 28 5 5 3 30
100 100 100 100 100 96 100 100 98 100 98 74 83 66 75 75 29 80 5 38 70 71 74 78 96 97 96 94 86 100 99 100 80 32 15 14 80 94 5 6 34 16 10 15
100 100 100 100 100 100 100 95 69 73 100 60 10 21 37 21 84 4 10 10 13 20 32 75 58 100 100 36 88 94 100 84 100 56 25 12 2 6 5 5 5 3 0 1
100 100 100 100 100 100 100 98 100 100 99 100 100 55 77 76 57 16 50 86 90 100 100 100 100 97 64 100 100 100 100 100 100 100 100 100 90 56 33 29 20 1 0 0
100 100 100 100 100 100 100 100 98 78 15 65 10 42 57 100 100 100 66 86 95 100 100 100 100 100 100 100 100 100 100 85 100 100 100 100 95 100 100 100 85 44 43 25
100 100 100 100 100 100 94 45 67 96 100 36 30 5 55 96 79 68 99 97 100 100 100 100 100 99 100 100 100 100 100 100 100 100 100 100 100 100 100 100 100 100 100 93
100 100 100 94 96 62 76 79 100 100 59 5 5 32 100 98 72 88 100 89 100 100 100 100 100 100 98 100 100 100 100 100 100 100 100 100 100 100 100 100 100 100 100 100
100 99 95 90 100 63 95 99 92 25 17 5 9 44 31 86 100 100 100 100 100 100 100 100 100 100 100 100 100 100 100 100 100 100 100 100 100 100 100 100 100 100 100 100
100 97 84 98 100 97 57 67 25 24 5 8 21 99 100 100 100 100 100 100 100 100 100 100 100 100 100 100 100 100 100 100 100 100 100 100 100 100 100 100 100 100 100 100

GFSCGP_prec_cloud_105.txt.gz
Cloud_Cover
0 0 0 0 0 0 5 5 5 2 0 0 0 4 5 1 5 5 5 0 0 0 0 0 0 0 0 0 0 0 0 0 3 2 2 5 5 42 4 4 33 60 32 1
0 0 0 0 0 0 0 0 0 0 0 0 5 5 5 5 2 0 1 0 3 5 0 0 2 0 0 0 0 0 0 2 1 1 3 3 2 1 5 5 4 1 1 0
0 0 0 0 0 0 0 0 0 0 0 0 0 0 0 0 0 0 0 0 0 0 0 0 0 0 0 0 0 0 0 0 0 0 0 0 0 0 0 0 0 0 0 15
0 0 0 0 0 0 0 0 0 0 0 0 0 0 0 0 0 0 0 0 0 0 0 0 0 0 0 0 0 0 0 0 0 0 0 0 0 0 0 0 0 0 0 14
9 0 0 0 0 0 5 0 0 0 0 0 0 0 0 5 6 7 2 0 0 0 0 0 0 0 0 0 0 0 0 0 0 0 0 0 0 0 0 0 0 0 1 0
99 26 41 4 4 2 6 6 15 5 3 0 3 3 1 8 28 94 86 82 26 5 1 0 0 0 0 0 0 0 0 0 0 0 0 0 0 0 0 0 0 0 0 0
100 100 100 100 100 86 71 62 39 5 49 10 46 66 87 100 43 7 87 85 30 5 0 0 0 0 0 0 0 0 0 2 0 0 0 0 0 0 0 0 0 0 0 0
100 100 100 100 100 100 100 100 100 100 100 100 100 100 100 100 82 6 100 99 4 0 5 5 1 1 2 2 0 0 0 0 4 5 0 0 0 0 0 0 0 0 0 0
100 100 100 100 100 100 100 100 100 100 32 67 90 98 97 99 86 95 80 59 99 19 5 5 5 5 62 8 5 5 2 5 5 5 2 1 3 2 5 6 17 19 5 0
100 87 100 100 100 100 100 100 100 100 88 90 100 100 100 54 68 100 100 84 80 30 18 4 5 5 42 19 7 7 3 5 5 5 8 5 5 4 5 23 79 100 62 3
100 100 100 100 96 100 100 100 100 100 99 100 94 100 100 92 34 87 100 98 95 88 100 89 97 6 5 5 4 8 7 2 3 0 4 2 4 5 5 38 80 100 66 5
100 91 90 100 100 100 100 100 100 100 58 100 100 58 100 100 69 99 98 97 78 92 97 91 28 5 5 5 4 4 22 16 26 5 4 4 2 5 5 64 84 53 52 50
100 100 100 100 100 100 100 100 100 100 100 63 100 58 100 95 92 100 84 100 100 71 92 100 28 20 9 15 89 43 4 5 8 28 58 91 100 70 24 38 11 65 83 65
99 100 100 83 100 100 100 100 100 100 100 80 80 100 100 100 60 98 83 92 99 100 100 95 98 82 69 47 10 22 5 5 5 4 5 7 11 7 6 8 82 96 42 100
76 95 66 92 99 88 86 96 99 100 81 99 69 100 99 100 90 100 100 74 98 94 100 89 92 61 52 58 9 5 5 5 5 5 4 3 1 0 0 16 84 69 95 100
99 69 52 61 100 100 95 100 100 100 100 100 100 100 21 83 30 84 84 5 67 100 100 100 100 94 76 22 5 5 5 5 5 5 5 5 0 0 0 0 0 10 100 100
96 98 91 81 100 100 97 100 100 100 100 100 100 100 100 96 100 43 16 99 98 94 85 99 100 64 82 94 94 79 43 18 21 26 22 9 5 2 0 4 72 25 100 100
99 100 100 88 100 90 100 96 94 100 99 100 100 100 81 78 70 58 6 35 42 58 31 25 29 67 78 98 69 53 36 91 65 35 27 28 23 6 5 23 75 100 100 100
89 99 100 100 100 97 100 100 100 100 100 98 94 94 74 9 4 27 20 73 11 56 31 46 63 54 48 89 43 5 70 100 96 100 93 69 43 26 17 10 14 74 87 54
82 85 100 100 100 100 100 100 100 100 100 84 13 46 50 74 33 5 4 2 5 5 7 50 84 96 100 100 100 100 100 100 100 100 99 100 100 100 89 96 85 68 20 65
100 100 100 100 100 100 100 100 100 96 92 57 100 71 86 82 11 2 1 5 27 100 92 99 75 100 96 100 100 100 100 100 100 100 100 100 100 81 50 95 64 57 67 20
100 100 100 100 100 100 100 100 100 97 100 71 6 47 18 4 4 3 28 100 74 96 100 100 82 100 100 100 100 100 99 100 100 100 100 100 100 100 100 100 31 93 100 94
97 100 100 100 100 100 100 100 100 67 8 15 69 4 5 3 1 26 59 91 100 100 100 100 100 100 100 76 100 100 100 100 100 100 100 100 100 100 99 100 95 97 100 100
99 100 100 100 100 100 100 100 63 26 95 69 13 5 5 54 100 100 100 100 100 100 100 100 100 100 100 100 100 100 100 100 100 100 100 100 100 100 100 100 100 100 100 100
100 100 100 100 98 56 94 57 96 100 65 0 5 5 100 100 82 100 100 100 100 100 100 100 100 100 100 100 100 100 100 100 100 100 100 100 100 100 100 100 100 100 100 100
100 100 99 99 98 84 86 100 100 87 7 5 20 100 87 93 100 100 97 100 100 100 100 100 100 100 100 100 100 100 100 100 100 100 100 100 100 100 100 100 100 100 100 100

GFSCGP_prec_cloud_108.txt.gz
Cloud_Cover
0 0 0 0 0 0 0 0 0 10 54 0 5 0 2 5 0 4 5 1 1 5 4 4 0 7 30 5 14 5 9 0 2 0 0 0 0 10 0 0 1 11 0 0
0 0 0 0 0 0 0 0 0 0 0 0 0 4 2 5 4 0 0 0 0 0 0 0 0 0 0 0 0 0 0 0 0 0 0 3 54 12 0 0 0 18 90 10
0 0 1 2 0 0 0 0 0 0 0 0 0 1 5 6 2 0 0 0 0 0 0 0 0 0 0 1 0 0 0 0 0 0 0 0 0 22 93 88 20 0 0 0
0 0 19 54 5 0 0 0 0 0 0 0 0 0 0 2 3 2 0 0 0 0 0 0 0 0 0 0 0 0 0 0 0 0 0 0 0 0 0 0 6 88 6 0
100 64 6 5 4 5 5 0 0 0 0 0 0 0 0 0 0 2 3 3 4 0 0 2 0 0 0 0 0 0 0 0 0 0 0 0 0 0 0 11 36 0 0 28
100 100 100 100 73 61 5 0 0 2 0 0 0 0 0 1 5 37 96 100 100 72 1 0 0 0 0 0 0 0 0 0 0 0 0 0 0 0 0 0 0 37 0 7
100 100 100 100 100 100 100 96 11 3 6 2 29 22 10 82 100 87 98 86 5 5 5 5 0 0 0 0 0 0 0 0 0 0 0 0 0 0 0 0 0 0 0 0
100 100 100 100 100 100 100 100 100 100 100 100 100 96 95 100 100 100 99 100 11 5 1 0 5 3 0 0 0 3 0 0 0 0 0 0 0 0 0 0 0 0 0 0
81 98 100 100 100 100 100 100 100 100 9 16 64 90 100 100 77 100 100 100 100 78 54 5 5 0 0 1 5 5 0 0 0 0 0 0 0 3 0 0 0 0 0 0
97 92 100 100 100 100 100 100 100 100 87 57 89 100 100 100 100 100 98 91 87 78 6 72 30 5 4 5 5 5 15 19 5 0 0 0 0 0 0 0 0 0 0 0
100 92 100 78 100 100 100 100 100 100 100 89 70 97 100 99 100 100 100 100 96 90 57 100 76 18 95 18 5 5 5 33 31 14 4 0 0 0 24 2 0 0 0 0
62 82 100 100 100 100 100 100 100 100 94 84 72 70 100 34 87 100 100 100 98 27 29 63 53 13 36 18 5 8 82 98 25 3 57 88 7 0 0 0 0 0 0 0
40 52 82 100 100 100 100 100 100 100 100 100 100 38 100 100 100 100 100 80 100 32 70 33 6 5 5 5 28 5 15 94 51 4 3 3 32 2 0 0 4 0 0 0
5 19 43 76 100 100 100 100 100 100 100 100 100 100 100 99 100 88 84 30 5 7 87 92 28 62 14 100 36 10 5 2 2 5 5 5 4 2 2 5 0 0 0 0
23 96 50 95 100 98 100 100 100 100 100 99 6 82 50 69 100 98 31 100 100 84 50 12 19 66 84 3 8 64 5 5 3 0 5 5 5 5 2 0 0 0 0 0
69 58 45 59 90 94 100 58 72 69 42 90 9 82 100 99 98 99 38 7 23 51 62 99 59 100 96 72 17 91 90 5 27 19 11 5 6 12 5 0 0 0 0 0
90 72 73 17 79 100 64 48 100 94 74 100 100 100 100 77 79 94 91 95 50 50 4 4 5 5 7 6 16 54 30 14 8 34 11 5 5 2 26 85 4 1 0 0
43 46 97 54 68 70 17 40 85 100 100 84 100 100 93 95 54 27 5 2 14 2 2 1 0 0 0 0 0 0 5 5 4 16 5 5 66 16 2 19 38 5 4 2
86 94 100 91 92 35 75 69 88 92 100 24 100 94 25 5 5 77 4 5 3 0 0 0 2 4 5 40 75 53 5 5 5 76 41 58 26 69 87 42 6 5 46 67
99 100 96 92 100 99 88 100 100 100 100 40 100 100 11 32 5 61 4 0 1 0 5 5 61 99 97 100 100 100 94 84 73 100 100 100 100 100 100 38 96 6 32 100
74 100 89 100 89 80 90 99 100 100 83 99 66 95 74 39 34 3 4 2 4 8 25 72 9 22 100 99 100 93 100 100 100 100 100 100 100 100 68 54 100 9 80 100
94 91 100 90 99 99 96 93 98 100 100 96 64 6 7 1 5 5 5 5 49 82 92 85 82 88 100 100 100 100 96 94 99 100 99 100 100 100 100 100 100 85 18 89
96 100 100 98 100 100 100 98 100 100 81 18 5 9 50 5 5 5 7 76 100 91 98 89 89 95 100 100 100 100 100 100 100 99 100 100 71 100 100 100 100 100 100 81
100 98 100 100 100 100 100 100 100 96 78 23 60 4 5 13 16 98 100 100 77 100 100 100 98 100 100 100 100 100 100 100 100 100 100 100 100 100 100 100 100 100 100 100
100 100 100 100 98 100 100 100 76 6 5 21 2 2 24 100 99 100 100 100 100 100 100 100 100 100 100 100 100 100 100 100 100 100 100 100 100 100 100 100 100 100 100 100
98 100 100 99 100 97 100 95 5 9 23 5 5 89 100 100 100 100 100 100 100 100 100 100 100 100 100 100 100 100 100 100 100 100 100 100 100 100 100 100 100 91 82 100

GFSCGP_prec_cloud_111.txt.gz
Cloud_Cover
0 0 0 0 0 0 0 0 0 0 2 0 0 5 16 92 100 100 100 100 100 100 100 100 100 100 100 100 100 100 96 3 2 56 100 100 100 64 46 3 0 2 0 0
0 0 0 0 0 0 0 0 0 0 0 0 0 0 0 0 0 22 51 90 95 100 100 100 98 35 26 9 5 7 92 6 0 0 0 0 0 0 0 0 0 1 3 49
5 0 0 0 0 0 0 0 0 0 0 0 0 0 0 0 0 0 0 0 3 20 7 2 2 2 1 0 2 20 8 2 0 0 0 0 0 0 0 0 0 0 4 93
0 0 0 0 0 0 0 0 0 0 0 0 0 0 0 0 0 0 0 0 0 0 0 0 0 0 0 0 0 0 0 0 0 0 0 0 0 0 0 0 0 4 95 22
100 100 96 59 49 84 41 5 0 0 0 0 0 0 0 0 0 0 0 1 0 7 30 5 0 0 0 0 0 0 0 0 0 0 0 0 0 0 0 0 0 0 0 0
100 100 100 100 100 100 100 98 26 2 0 0 0 0 0 0 8 88 100 10 77 100 96 10 4 0 0 0 0 0 0 0 0 0 0 0 0 0 0 0 0 0 0 3
99 100 97 100 100 100 100 100 100 100 99 44 26 3 0 5 6 36 27 73 18 98 80 35 28 5 0 0 0 0 0 0 0 0 0 0 0 0 0 0 0 0 0 0
98 100 100 88 9 96 99 100 100 100 100 95 100 86 49 6 98 39 100 8 64 88 98 100 100 98 5 4 0 0 0 0 0 0 0 0 0 0 0 0 0 0 0 0
10 97 100 69 100 95 89 100 94 18 40 50 45 76 100 100 100 100 100 100 100 99 100 95 93 89 100 28 5 5 5 0 0 0 0 0 0 0 0 0 0 0 0 0
5 76 55 54 95 100 69 100 86 72 74 26 5 80 100 100 100 100 100 100 69 87 64 5 5 5 56 6 5 5 5 0 0 0 0 0 0 0 0 0 0 0 0 0
47 69 7 5 19 100 60 98 95 92 71 92 74 100 100 100 100 98 100 100 100 99 91 95 70 84 23 39 84 53 5 4 0 0 1 4 0 3 0 0 0 0 11 0
98 29 52 28 5 3 5 48 100 100 96 96 91 89 100 66 97 100 100 100 100 100 100 100 100 100 98 38 5 5 26 71 96 49 34 79 7 5 6 7 1 0 0 0
100 100 98 99 20 4 4 5 29 91 91 100 100 87 100 100 71 100 100 100 100 100 100 100 99 10 5 5 5 0 0 1 9 7 3 2 1 4 3 4 4 0 0 0
30 36 10 14 23 5 1 4 85 100 98 74 75 100 100 100 99 100 98 34 41 100 100 77 5 5 5 5 5 8 75 14 9 48 11 4 0 0 0 0 0 0 0 0
5 5 4 5 5 5 10 5 1 4 6 73 88 99 61 100 100 91 40 94 72 88 100 98 86 87 87 62 12 48 6 5 4 5 1 0 0 0 0 0 0 0 0 0
85 5 6 5 5 5 6 5 5 2 3 48 66 98 100 100 90 88 6 12 15 10 14 5 2 0 1 1 2 2 0 0 0 4 5 5 5 5 3 0 0 0 0 0
5 9 63 7 5 1 1 1 3 83 91 100 100 64 5 5 5 35 50 92 71 30 6 11 21 10 6 5 4 3 1 0 0 6 26 5 5 5 10 5 5 5 4 2
21 73 94 58 6 51 12 100 88 100 5 100 60 72 5 91 75 100 87 5 13 20 1 0 0 0 0 1 4 1 4 5 9 17 74 100 99 25 0 0 0 0 0 1
70 94 90 90 22 2 0 40 11 27 58 99 97 100 56 50 90 100 36 5 0 0 0 0 0 0 2 2 0 3 5 47 78 94 100 100 100 61 23 5 5 4 4 2
100 100 77 97 93 57 5 5 10 44 6 61 53 100 97 99 99 100 94 6 4 0 0 0 1 4 2 5 5 5 8 99 100 100 33 98 98 100 86 97 87 28 6 5
96 100 100 100 100 56 5 5 25 84 98 99 50 89 91 100 67 100 11 2 0 0 0 4 16 5 22 20 68 68 85 100 97 99 100 61 62 100 100 100 65 22 27 70
87 100 100 100 100 77 42 67 88 96 100 93 93 76 73 50 0 0 0 0 0 0 10 55 82 91 100 76 75 91 100 100 100 76 100 100 94 100 100 100 100 100 100 100
62 43 100 100 100 100 36 60 53 82 100 100 59 93 27 5 0 0 0 9 80 88 100 100 99 100 100 100 100 100 100 100 100 100 93 100 100 100 100 100 92 100 100 100
34 91 100 100 100 98 55 83 93 100 100 61 5 5 5 0 0 2 100 100 100 100 100 100 100 100 100 100 100 100 100 100 100 100 100 100 100 100 100 100 100 100 100 100
65 84 78 90 99 76 86 100 82 92 100 51 8 5 0 13 53 100 100 100 100 100 100 100 92 100 100 100 100 100 100 100 100 100 100 100 100 100 100 100 100 100 100 100
24 81 91 100 100 99 97 64 77 78 79 9 5 1 11 100 100 100 100 100 100 100 100 90 100 100 100 100 100 100 100 100 100 100 100 100 100 100 100 100 100 100 100 100

GFSCGP_prec_cloud_114.txt.gz
Cloud_Cover
100 90 100 61 98 100 93 93 95 37 5 3 3 0 0 0 0 4 44 5 29 98 99 99 100 100 100 100 100 100 16 58 100 86 100 81 7 57 100 100 100 100 100 100
86 95 92 21 5 57 5 5 5 5 3 0 0 4 5 5 0 0 0 11 29 9 28 99 100 19 5 15 50 37 100 100 100 96 48 50 5 11 25 4 4 43 88 100
0 0 0 1 0 0 4 4 2 1 0 0 0 0 0 0 0 0 0 2 2 0 1 3 4 24 40 92 100 100 100 100 78 43 66 94 100 94 36 22 0 0 0 18
0 0 0 0 0 0 0 0 0 0 0 0 0 0 0 0 0 0 1 0 0 0 0 0 0 0 0 1 1 0 0 0 1 0 0 0 0 0 0 0 0 0 0 0
0 0 0 0 0 0 0 0 0 0 0 0 0 0 0 0 0 0 0 0 0 0 0 0 1 0 3 0 0 0 0 0 0 0 0 0 0 0 0 0 0 0 0 0
35 0 0 0 0 0 0 0 0 0 0 0 0 0 0 0 0 0 0 0 0 0 0 0 1 1 1 1 0 0 0 0 0 0 0 0 0 0 0 0 0 0 0 0
100 100 95 99 99 70 43 64 82 60 62 49 4 12 0 0 0 0 0 0 0 0 0 3 9 36 5 5 5 4 0 1 0 0 0 0 0 0 0 0 0 0 0 0
80 97 59 7 16 74 100 59 62 59 82 66 96 94 100 90 11 0 2 61 5 43 0 3 5 86 70 11 41 5 5 5 5 2 5 4 1 0 0 0 0 0 0 0
100 100 100 97 62 72 99 98 32 27 6 4 1 6 84 22 85 24 63 19 64 6 98 93 100 99 79 22 9 22 9 5 5 12 78 5 1 0 0 0 0 0 0 0
14 27 5 41 97 97 15 50 62 57 37 4 5 13 100 84 96 77 100 44 16 5 22 64 100 100 99 82 79 64 27 28 82 64 6 5 5 5 1 0 0 0 0 0
91 14 5 4 5 3 49 5 11 18 52 93 82 8 5 50 99 100 60 79 100 100 64 60 60 73 95 100 100 94 100 100 52 5 5 5 5 3 3 5 5 0 0 0
100 100 97 84 9 5 5 5 5 88 59 95 100 19 46 98 34 82 99 36 99 100 100 100 100 100 98 92 96 100 99 7 5 5 2 0 1 2 4 5 6 5 5 4
100 100 100 100 98 97 91 86 35 34 14 85 100 32 98 63 97 46 89 100 100 72 94 100 100 100 80 92 100 100 57 5 0 0 3 0 0 0 0 0 0 0 1 5
57 92 99 100 100 17 5 5 5 5 96 41 30 11 5 99 72 4 100 100 100 100 100 100 100 100 100 100 69 5 5 1 0 0 0 1 1 2 0 1 2 0 0 0
5 5 22 60 32 54 47 71 5 4 0 5 3 0 1 24 63 20 5 88 98 100 100 100 100 100 100 73 5 5 5 18 65 88 82 33 11 2 1 0 0 0 0 0
5 3 5 5 2 2 5 5 5 1 0 5 49 39 85 100 78 7 5 5 35 92 100 100 98 81 93 66 1 42 68 30 4 0 0 2 0 0 1 3 3 3 3 6
5 2 5 5 5 3 3 57 4 2 5 5 5 15 76 79 98 81 22 19 23 79 98 66 9 37 34 89 100 100 100 98 30 0 0 0 0 0 5 5 5 39 5 86
2 4 32 46 5 17 1 5 5 5 26 57 6 56 77 92 95 88 27 99 85 9 5 5 0 0 0 0 1 0 0 0 0 0 0 0 1 4 22 100 96 47 100 96
80 95 99 83 5 2 0 1 5 54 39 72 47 58 99 97 99 93 35 70 71 35 5 5 2 1 0 0 0 0 0 0 4 5 4 26 67 52 100 100 49 67 92 97
6 98 100 100 100 69 5 5 5 11 15 61 100 90 84 5 89 100 100 16 4 4 4 4 0 0 0 0 0 0 3 76 94 100 97 77 76 97 93 67 100 100 94 76
37 98 99 100 99 73 5 5 5 35 24 53 100 99 33 80 18 94 92 48 2 0 0 0 0 0 1 49 100 100 100 100 100 100 100 100 100 100 98 80 100 85 100 100
13 100 91 100 100 76 22 63 67 40 5 30 68 64 100 86 9 5 4 0 0 0 0 4 5 6 10 42 86 100 100 100 100 100 100 100 100 100 100 100 100 96 100 100
8 6 84 100 99 100 92 97 98 15 5 5 60 79 13 5 5 0 0 0 2 55 80 74 99 100 100 100 100 100 100 100 100 100 100 100 100 100 100 100 100 100 100 100
5 5 46 96 98 96 100 72 23 82 83 99 100 94 5 5 5 0 1 61 95 92 100 77 100 100 100 100 99 100 100 100 100 100 100 100 100 100 100 100 100 100 100 100
5 18 25 46 98 86 77 77 12 25 48 6 60 6 5 5 0 78 100 65 99 100 98 100 100 100 99 100 100 100 100 100 100 100 100 100 100 100 100 100 100 100 100 100
5 4 29 7 98 80 100 100 80 5 5 62 60 5 5 2 97 83 90 100 100 100 100 100 100 100 100 100 100 100 100 100 100 100 100 100 100 100 100 100 100 100 100 100

GFSCGP_prec_cloud_117.txt.gz
Cloud_Cover
100 100 100 100 100 100 100 100 100 100 100 99 100 100 100 100 100 100 100 100 100 100 100 100 100 84 74 88 71 100 100 100 100 100 100 100 100 93 83 100 100 100 100 100
100 100 100 100 100 100 100 100 100 100 100 100 96 100 100 100 29 37 46 52 81 94 96 5 2 0 0 0 3 4 64 85 82 78 11 5 4 0 0 8 28 51 10 19
100 100 100 100 100 100 100 89 44 100 100 100 100 98 100 91 68 5 5 5 21 30 0 0 2 4 0 0 0 0 0 4 5 0 0 0 0 0 0 1 0 0 2 0
77 100 100 100 100 100 100 100 100 100 100 10 16 96 100 88 33 30 58 5 5 1 3 0 0 0 0 0 0 0 0 0 0 0 0 0 0 0 0 0 0 0 0 0
0 1 98 100 92 60 82 6 51 32 56 31 5 2 73 6 33 5 0 0 2 3 0 0 0 0 0 0 0 0 0 0 0 0 0 0 0 0 0 0 0 0 0 0
0 0 0 2 8 7 70 18 20 24 10 5 6 3 5 5 0 0 0 0 0 0 0 0 0 0 0 0 0 0 0 0 0 0 0 0 0 0 0 1 0 0 0 0
0 0 0 0 0 0 2 4 19 64 59 87 18 4 5 1 0 0 0 0 0 0 0 0 0 0 0 0 0 3 4 2 2 3 2 0 0 0 5 3 0 0 0 0
91 24 0 0 0 1 0 0 1 0 0 0 0 0 0 0 0 0 0 0 0 0 0 0 0 0 0 4 5 5 5 26 5 20 5 5 5 8 5 5 5 5 0 0
100 100 100 100 100 100 39 55 25 44 5 4 4 5 5 5 5 3 0 0 0 0 0 0 0 0 5 8 69 92 76 15 22 32 48 54 68 86 93 83 34 6 6 1
100 100 100 100 100 89 100 77 52 32 10 5 5 5 5 4 4 21 5 4 3 1 23 29 4 5 5 27 95 52 10 5 94 100 63 89 91 84 69 100 100 77 5 21
33 37 63 58 75 41 23 30 11 15 21 8 44 38 6 4 3 3 5 19 100 100 100 100 92 79 61 24 24 50 89 61 100 98 100 100 100 95 15 16 5 5 5 3
95 49 5 5 5 5 4 2 4 5 6 42 90 69 5 5 5 5 5 14 5 6 57 51 86 73 100 91 100 100 100 100 100 100 21 11 23 21 8 5 5 5 5 0
26 80 49 5 5 5 4 2 1 2 19 68 40 9 5 5 6 42 33 5 72 7 7 19 52 92 96 100 100 100 99 67 38 14 28 19 12 8 16 36 6 5 5 5
93 96 87 88 5 5 15 24 36 5 97 5 11 12 5 0 1 0 2 2 0 0 8 87 75 6 5 46 36 100 100 98 76 32 5 24 22 12 6 5 5 5 2 1
100 100 100 100 94 49 7 5 4 5 4 4 5 5 6 4 5 5 5 5 2 1 36 20 5 48 70 5 51 5 3 10 9 3 50 84 43 8 5 3 1 1 55 76
77 100 85 99 60 58 50 8 5 1 0 0 0 1 2 5 5 5 5 5 5 6 19 22 5 37 53 100 76 3 16 5 3 0 1 38 48 58 33 2 5 2 5 5
5 4 5 5 4 18 25 5 3 4 0 0 3 5 5 5 21 17 8 52 98 90 5 4 5 5 0 1 0 0 0 1 1 0 0 0 1 1 1 3 1 0 0 0
0 0 4 5 5 5 0 0 0 0 0 4 4 5 5 7 27 68 98 56 49 5 2 4 5 2 2 0 0 0 0 0 0 0 0 0 0 0 0 3 6 52 44 64
0 3 59 78 12 2 0 0 0 3 1 3 0 4 18 28 5 6 40 5 5 5 1 0 0 0 0 0 0 0 0 0 0 0 0 3 84 88 100 100 100 100 100 100
5 84 86 98 99 96 5 6 1 5 3 2 4 5 99 29 5 35 5 5 3 3 0 3 5 0 0 0 0 0 6 11 12 100 100 100 100 100 100 100 100 100 100 100
34 86 100 98 100 79 88 89 53 78 12 5 5 12 33 6 24 5 4 4 0 0 0 0 0 0 3 86 100 100 100 100 100 100 100 100 100 100 100 100 100 100 98 100
12 52 99 100 100 65 18 46 73 77 68 22 5 5 5 5 5 5 2 0 0 0 0 0 0 32 100 100 100 100 100 100 98 100 100 100 100 100 100 100 100 100 100 100
4 5 6 16 4 7 88 100 100 68 88 73 24 6 5 5 5 5 1 0 0 0 3 47 98 94 100 100 100 100 100 100 100 100 100 100 100 100 100 100 100 100 100 100
5 5 6 42 5 16 58 100 100 95 14 99 44 5 5 11 5 5 0 0 0 48 92 92 97 100 100 100 100 100 100 100 100 100 100 100 100 100 100 100 100 100 100 100
0 4 10 5 5 10 6 70 98 91 97 26 5 5 5 5 5 0 0 6 42 47 87 100 100 100 100 100 100 100 100 100 100 100 100 100 100 100 100 100 100 100 100 100
3 3 5 4 5 14 14 31 66 5 5 11 58 5 5 5 0 4 33 85 98 100 100 100 100 100 100 100 100 100 100 100 100 100 100 100 100 100 100 100 100 100 100 100

GFSCGP_prec_cloud_123.txt.gz
Cloud_Cover
0 0 9 100 100 100 100 100 100 100 100 100 100 71 100 19 99 68 38 83 81 100 100 11 2 5 5 12 5 1 3 5 5 51 81 100 100 100 100 98 100 100 97 100
0 0 28 100 100 100 100 100 100 100 100 100 100 100 100 100 100 100 100 100 100 88 100 5 5 4 0 0 0 4 3 12 8 18 92 92 45 48 96 99 98 52 33 1
0 0 0 50 100 100 100 100 100 100 100 100 100 64 100 100 100 100 88 99 100 76 56 5 5 9 20 13 4 7 17 9 5 9 5 12 27 26 17 36 62 36 13 0
0 0 0 1 100 99 100 100 100 100 100 100 100 100 100 100 100 100 91 70 98 54 7 5 5 5 5 5 5 5 5 22 27 44 5 1 1 0 0 0 0 4 0 0
0 0 0 1 100 100 100 100 100 100 100 100 100 100 100 100 100 100 100 100 52 20 28 58 94 100 99 22 75 40 4 1 0 0 0 0 0 0 0 0 0 0 0 0
0 0 0 8 100 100 100 100 100 100 100 100 100 100 100 100 100 100 100 100 100 100 100 76 46 77 35 7 7 5 1 0 0 0 0 0 0 0 0 0 0 0 0 0
0 0 0 0 100 100 100 100 99 99 100 100 100 100 100 100 100 100 100 100 100 100 100 100 85 24 5 5 5 5 5 0 0 0 0 0 0 0 0 0 0 0 4 5
0 0 0 0 2 76 100 100 100 100 100 100 100 100 100 100 100 100 100 100 99 72 11 18 39 31 9 20 3 0 0 0 0 0 0 0 0 0 0 4 5 5 5 5
0 0 0 0 0 0 29 99 98 100 100 100 100 97 49 81 90 99 100 100 95 22 8 5 5 3 1 4 5 0 0 0 0 1 7 47 61 21 2 5 5 5 5 5
0 0 0 0 0 0 0 36 100 100 73 78 100 100 100 90 71 71 80 34 24 5 5 5 4 3 5 18 29 85 81 7 8 3 5 9 42 93 99 95 100 46 28 13
95 99 58 5 5 4 2 0 0 8 34 86 87 100 66 48 17 5 2 0 0 3 5 5 17 8 49 14 26 26 26 28 92 94 98 90 62 33 58 78 84 34 35 86
100 100 100 86 56 60 12 58 30 5 5 2 5 15 97 42 5 5 5 5 5 10 42 38 88 75 66 33 5 5 0 0 3 6 5 5 5 48 99 57 99 79 66 93
90 86 95 100 100 100 75 68 58 51 14 24 25 39 30 5 8 8 5 5 5 3 3 3 5 5 5 5 5 5 1 0 1 0 0 1 3 5 0 3 8 42 41 35
99 93 100 86 26 20 62 77 70 73 86 59 79 8 10 6 5 4 0 0 0 0 0 0 0 0 0 0 4 0 0 0 0 0 0 0 0 3 0 0 0 0 33 3
100 100 100 100 97 90 84 18 6 19 41 13 8 2 4 3 4 3 0 0 0 0 0 2 4 4 2 1 0 4 4 4 4 0 0 0 0 0 0 0 0 0 0 0
99 100 100 100 100 100 100 100 100 100 100 100 87 36 5 5 4 4 0 0 0 5 5 5 5 5 5 5 5 5 2 1 0 0 0 0 0 0 0 0 0 0 0 0
100 100 100 92 44 75 84 36 69 57 32 5 5 5 5 4 4 2 0 0 4 5 5 8 6 5 5 5 5 0 0 0 0 0 0 0 0 0 0 0 0 0 5 23
84 83 72 11 5 4 4 7 5 5 5 3 0 0 0 0 0 2 5 46 99 82 15 5 5 5 5 2 0 0 0 0 0 0 0 0 0 1 0 20 77 96 100 100
6 5 9 5 5 0 0 1 0 0 0 0 0 0 0 4 5 5 5 5 31 16 6 5 2 0 0 0 0 0 0 0 0 0 13 8 5 9 86 100 100 80 97 100
5 5 5 87 22 5 4 0 0 0 2 0 0 4 10 63 92 97 5 5 5 5 0 0 0 0 0 0 0 0 0 0 2 43 76 95 88 100 99 93 100 100 100 100
24 40 65 87 45 66 5 5 5 18 4 2 3 5 5 16 40 5 5 5 4 0 0 0 0 0 0 0 0 1 4 5 82 100 98 100 99 96 100 100 100 100 100 100
67 99 100 100 100 81 5 3 5 4 5 5 70 26 72 38 5 5 5 5 0 0 0 0 0 0 0 1 6 18 20 47 93 98 100 100 100 100 100 100 100 100 100 100
100 100 100 42 12 5 0 5 5 5 5 4 5 9 44 59 24 6 5 0 0 0 0 0 0 0 3 5 97 100 82 99 100 100 100 100 100 100 100 100 100 100 100 100
98 86 12 5 5 0 0 1 5 5 5 5 33 84 52 6 5 5 5 0 0 0 0 0 3 5 76 100 94 100 100 100 100 100 100 100 100 100 100 100 100 100 100 100
31 42 11 5 2 0 0 1 2 5 5 46 96 66 5 5 5 5 0 0 0 0 4 5 12 89 70 97 100 100 100 100 100 100 100 100 100 100 100 100 100 100 100 100
8 5 3 4 5 5 5 1 0 5 53 52 5 5 5 5 5 0 0 0 5 56 100 100 100 100 100 100 100 100 100 100 100 100 100 100 100 100 100 100 100 100 100 100